Regional Weather Roundup
Issued by NWS

Home | Current Version | Previous Version | Graphics & Text | Print | Product List | Glossary On
Versions: 1 2 3 4 5 6 7 8 9 10 11 12 13 14 15 16 17 18 19 20 21 22 23 24 25 26 27 28 29 30 31 32 33 34 35 36 37 38 39 40 41 42 43 44 45 46 47 48 49 50
000
ASUS45 KBOI 270810
RWRID
WEATHER ROUNDUP FOR IDAHO
NATIONAL WEATHER SERVICE BOISE ID
100 AM MST THU NOV 27 2014

NOTE: "FAIR" INDICATES FEW OR NO CLOUDS BELOW 12000 FEET
WITH NO SIGNIFICANT WEATHER AND/OR OBSTRUCTIONS TO VISIBILITY

IDZ012-014-270900-
SOUTHWEST IDAHO


CITY           SKY/WX    TMP DP  RH WIND       PRES   REMARKS
BOISE          CLOUDY    50  36  58 E6        30.16R
CALDWELL       NOT AVBL
MOUNTAIN HOME  CLOUDY    45  43  94 E14       30.18S
$$

IDZ016-017-270900-
SOUTHCENTRAL IDAHO


CITY           SKY/WX    TMP DP  RH WIND       PRES   REMARKS
BURLEY         MOCLDY    48  29  47 S15       30.22F
JEROME         CLOUDY    46  30  53 E8        30.23F
TWIN FALLS     CLOUDY    54  27  35 S15       30.21F
$$

IDZ019>023-270900-
SOUTHEAST IDAHO


CITY           SKY/WX    TMP DP  RH WIND       PRES   REMARKS
IDAHO FALLS    CLOUDY    40  31  70 S3        30.24F
POCATELLO      CLEAR     50  28  42 S15       30.23F
REXBURG        CLOUDY    36  30  79 CALM      30.25S
$$

IDZ006-010-011-018-031-032-270900-
CENTRAL IDAHO MOUNTAINS


CITY           SKY/WX    TMP DP  RH WIND       PRES   REMARKS
MCCALL         CLOUDY    33  32  96 CALM      30.17F
HAILEY         CLOUDY    34  28  80 NW12      30.28F WCI  25
STANLEY          N/A     32  23  69 CALM      30.25F
SALMON         CLOUDY    30  28  93 CALM      30.18S VSB 1/4
CHALLIS        MOCLDY    34  27  75 CALM      30.19S
$$

IDZ002-004-006-007-026-270900-
NORTHERN IDAHO


CITY           SKY/WX    TMP DP  RH WIND       PRES   REMARKS
LEWISTON       CLOUDY    46  42  86 NE6       30.02F
LOWELL           N/A     40  39  97 CALM      30.16F
COEUR D`ALENE  CLOUDY    45  41  87 S13       29.94F
MULLAN PASS    CLOUDY    34  34 100 S13G23    29.99F WCI  25
$$



USA.gov is the U.S. government's official web portal to all federal, state and local government web resources and services.